Date String (YYYY-MM-DD hh:mm:ss) UTC,Instrument flags,Ambient pressure (hPa),Sample flow (lpm),Bypass flow (lpm),Sample temperature (°C),Ambient temperature (°C),ASC tube jacket temperature (°C),LED temperature (°C),Box temperature (°C),Sample RH (%),Span deviation,Mass concentration (μg/m³),Mass concentration (μg/m³),Mass concentration (μg/m³)
DateTimeUTC,F1_M11,P_M11,Q1_M11,Q2_M11,T1_M11,T2_M11,T3_M11,T4_M11,T5_M11,U1_M11,ZSPAN_M11,X0_M11,X2_M11,X1_M11
2022-04-12 18:00:00,,0807.3,4.99,0.00,23.2,22.0,00.0,32.2,24.9,07.4,0000.0,0009.34,0003.18,0000.73
2022-04-12 18:01:00,,0807.4,5.01,0.00,23.2,22.0,00.0,32.2,24.9,07.3,0000.0,0010.20,0003.22,0000.74
2022-04-12 18:02:00,,0807.3,4.99,0.00,23.2,22.0,00.0,32.2,25.0,07.2,0000.0,0010.35,0003.25,0000.75
2022-04-12 18:03:00,,0807.3,5.01,0.00,23.3,22.0,00.0,32.2,25.0,07.0,0000.0,0010.72,0003.32,0000.77
2022-04-12 18:04:00,,0807.3,5.00,0.00,23.3,22.0,00.0,32.2,24.9,06.9,0000.0,0010.98,0003.35,0000.77
2022-04-12 18:05:00,,0807.3,5.00,0.00,23.3,22.0,00.0,32.2,24.9,07.0,0000.0,0011.07,0003.39,0000.78
2022-04-12 18:06:00,,0807.2,5.00,0.00,23.3,22.0,00.0,32.2,24.9,07.3,0000.0,0011.32,0003.49,0000.80
2022-04-12 18:07:00,,0807.3,5.00,0.00,23.3,22.0,00.0,32.2,25.0,07.4,0000.0,0011.74,0003.56,0000.81
2022-04-12 18:08:00,,0807.3,4.98,0.00,23.3,22.0,00.0,32.3,25.0,07.4,0000.0,0011.72,0003.58,0000.80
2022-04-12 18:09:00,,0807.5,5.01,0.00,23.3,22.0,00.0,32.3,25.0,07.3,0000.0,0011.51,0003.56,0000.79
2022-04-12 18:10:00,,0807.5,4.99,0.00,23.3,22.0,00.0,32.3,25.0,07.1,0000.0,0011.43,0003.57,0000.77
2022-04-12 18:11:00,,0807.5,5.01,0.00,23.3,22.0,00.0,32.3,25.0,07.0,0000.0,0011.00,0003.57,0000.78
2022-04-12 18:12:00,,0807.5,4.99,0.00,23.3,22.0,00.0,32.3,25.0,07.2,0000.0,0010.19,0003.59,0000.78
2022-04-12 18:13:00,,0807.6,5.02,0.00,23.3,22.0,00.0,32.3,25.0,07.1,0000.0,0009.77,0003.59,0000.78
2022-04-12 18:14:00,,0807.6,4.99,0.00,23.4,22.1,00.0,32.3,25.1,07.2,0000.0,0009.98,0003.57,0000.77
2022-04-12 18:15:00,,0807.6,5.01,0.00,23.4,22.1,00.0,32.3,25.0,07.3,0000.0,0009.91,0003.53,0000.76
2022-04-12 18:16:00,,0807.6,4.99,0.00,23.4,22.1,00.0,32.3,25.0,07.3,0000.0,0009.74,0003.52,0000.76
2022-04-12 18:17:00,,0807.6,4.99,0.00,23.4,22.1,00.0,32.3,25.1,07.3,0000.0,0009.95,0003.47,0000.76
2022-04-12 18:18:00,,0807.6,5.00,0.00,23.4,22.2,00.0,32.3,25.1,07.4,0000.0,0009.80,0003.41,0000.75
2022-04-12 18:19:00,,0807.5,5.00,0.00,23.4,22.3,00.0,32.3,25.1,07.6,0000.0,0009.84,0003.33,0000.74
2022-04-12 18:20:00,,0807.5,5.00,0.00,23.4,22.3,00.0,32.3,25.1,07.7,0000.0,0009.82,0003.26,0000.73
2022-04-12 18:21:00,,0807.5,5.00,0.00,23.4,22.3,00.0,32.3,25.1,07.4,0000.0,0009.91,0003.24,0000.75
2022-04-12 18:22:00,,0807.3,4.99,0.00,23.4,22.4,00.0,32.3,25.1,07.7,0000.0,0009.81,0003.18,0000.74
2022-04-12 18:23:00,,0807.3,5.01,0.00,23.4,22.4,00.0,32.3,25.1,07.6,0000.0,0009.79,0003.11,0000.72
2022-04-12 18:24:00,,0807.4,4.99,0.00,23.4,22.3,00.0,32.3,25.1,07.6,0000.0,0009.73,0003.04,0000.71
2022-04-12 18:25:00,,0807.4,5.00,0.00,23.4,22.3,00.0,32.4,25.1,07.4,0000.0,0009.31,0003.04,0000.71
2022-04-12 18:26:00,,0807.2,5.01,0.00,23.5,22.3,00.0,32.4,25.2,07.5,0000.0,0009.55,0002.96,0000.72
2022-04-12 18:27:00,,0807.3,5.00,0.00,23.5,22.4,00.0,32.4,25.2,07.5,0000.0,0009.66,0003.00,0000.71
2022-04-12 18:28:00,,0807.4,5.01,0.00,23.5,22.4,00.0,32.4,25.3,07.5,0000.0,0009.30,0002.99,0000.70
2022-04-12 18:29:00,,0807.4,5.00,0.00,23.5,22.4,00.0,32.4,25.3,07.4,0000.0,0008.83,0002.92,0000.69
2022-04-12 18:30:00,,0807.3,4.99,0.00,23.6,22.5,00.0,32.4,25.4,07.5,0000.0,0009.13,0003.00,0000.71
2022-04-12 18:31:00,,0807.3,5.01,0.00,23.6,22.5,00.0,32.4,25.4,07.5,0000.0,0009.33,0003.03,0000.71
2022-04-12 18:32:00,,0807.4,5.00,0.00,23.6,22.6,00.0,32.4,25.5,07.4,0000.0,0009.31,0003.07,0000.70
2022-04-12 18:33:00,,0807.4,4.99,0.00,23.6,22.6,00.0,32.5,25.5,07.7,0000.0,0010.21,0003.15,0000.70
2022-04-12 18:34:00,,0807.4,5.00,0.00,23.7,22.7,00.0,32.5,25.5,08.0,0000.0,0010.16,0003.14,0000.70
2022-04-12 18:35:00,,0807.5,5.02,0.00,23.7,22.7,00.0,32.5,25.5,07.6,0000.0,0010.18,0003.18,0000.71
2022-04-12 18:36:00,,0807.6,4.99,0.00,23.7,22.7,00.0,32.5,25.5,07.4,0000.0,0010.34,0003.22,0000.73
2022-04-12 18:37:00,,0807.8,5.01,0.00,23.7,22.7,00.0,32.5,25.5,07.6,0000.0,0009.98,0003.27,0000.74
2022-04-12 18:38:00,,0808.0,5.01,0.00,23.8,22.7,00.0,32.6,25.5,07.5,0000.0,0009.97,0003.25,0000.75
2022-04-12 18:39:00,,0808.0,4.98,0.00,23.8,22.8,00.0,32.6,25.6,07.6,0000.0,0010.95,0003.38,0000.78
2022-04-12 18:40:00,,0807.7,5.02,0.00,23.8,22.8,00.0,32.6,25.6,07.2,0000.0,0011.28,0003.46,0000.80
2022-04-12 18:41:00,,0807.5,4.99,0.00,23.8,22.8,00.0,32.6,25.5,07.4,0000.0,0010.88,0003.46,0000.83
2022-04-12 18:42:00,,0807.7,4.99,0.00,23.8,22.8,00.0,32.6,25.5,07.4,0000.0,0010.66,0003.48,0000.83
2022-04-12 18:43:00,,0808.0,5.02,0.00,23.8,22.7,00.0,32.6,25.5,06.8,0000.0,0010.81,0003.48,0000.85
2022-04-12 18:44:00,,0808.1,4.98,0.00,23.8,22.7,00.0,32.7,25.5,07.1,0000.0,0010.37,0003.52,0000.88
2022-04-12 18:45:00,,0808.0,4.99,0.00,23.8,22.7,00.0,32.7,25.5,07.1,0000.0,0010.61,0003.64,0000.91
2022-04-12 18:46:00,,0808.1,5.01,0.00,23.7,22.7,00.0,32.7,25.5,06.6,0000.0,0011.41,0003.70,0000.93
2022-04-12 18:47:00,,0808.1,4.99,0.00,23.7,22.7,00.0,32.7,25.4,06.6,0000.0,0011.64,0003.78,0000.95
2022-04-12 18:48:00,,0808.0,5.00,0.00,23.7,22.7,00.0,32.7,25.4,06.6,0000.0,0011.60,0003.80,0000.98
2022-04-12 18:49:00,,0808.0,5.01,0.00,23.6,22.7,00.0,32.7,25.4,06.2,0000.0,0012.08,0003.87,0000.99
2022-04-12 18:50:00,,0808.1,4.99,0.00,23.6,22.7,00.0,32.7,25.4,06.1,0000.0,0011.77,0003.85,0001.01
2022-04-12 18:51:00,,0808.3,5.01,0.00,23.6,22.7,00.0,32.7,25.3,06.1,0000.0,0011.47,0003.82,0001.02
2022-04-12 18:52:00,,0808.3,4.99,0.00,23.6,22.6,00.0,32.6,25.3,06.4,0000.0,0011.58,0003.83,0001.04
2022-04-12 18:53:00,,0808.1,5.01,0.00,23.6,22.6,00.0,32.7,25.3,06.7,0000.0,0012.38,0003.88,0001.05
2022-04-12 18:54:00,,0808.3,4.99,0.00,23.6,22.5,00.0,32.6,25.4,06.5,0000.0,0012.91,0003.89,0001.05
2022-04-12 18:55:00,,0808.5,5.01,0.00,23.6,22.5,00.0,32.6,25.4,06.6,0000.0,0012.63,0003.87,0001.04
2022-04-12 18:56:00,,0808.6,4.99,0.00,23.6,22.5,00.0,32.6,25.3,06.5,0000.0,0012.51,0003.82,0001.03
2022-04-12 18:57:00,,0808.7,4.99,0.00,23.6,22.5,00.0,32.6,25.3,06.6,0000.0,0011.91,0003.80,0001.02
2022-04-12 18:58:00,,0808.8,5.02,0.00,23.5,22.5,00.0,32.6,25.2,06.5,0000.0,0011.53,0003.71,0001.00
2022-04-12 18:59:00,,0808.9,4.98,0.00,23.5,22.5,00.0,32.6,25.2,06.4,0000.0,0011.68,0003.72,0000.99
